ロニオス彗星

C/2000 S3 ( LONEOS )

English version
Home page
Updated on August 4, 2001

---------------------------------------------------------------------

・ プロフィール

発見日 2000年9月29日
発見光度 17.7等
発見者 B. A. Skiff (LONEOS)

・ 軌道要素

     T = 2000 July 15.867 TT          Peri. = 298.162
     e = 0.77299                      Node  =  41.137   2000.0
     q = 2.66273 AU                   Incl. =  25.179
       a = 11.72976 AU     n = 0.024534     P =  40.17 years

・ 星図

・ 光度変化

        m1 = 8.0 + 5 logΔ + 20.0 log r

---------------------------------------------------------------------

軌道要素は IAUC 7501 に掲載されたものです。
星図は StellaNavigator Ver.2.0 for Windows (アストロアーツ 編著 / アスキー出版局刊) で作成したものです。
光度グラフはComet for Windowsで作成したものです。

---------------------------------------------------------------------

Copyright(C) Seiichi Yoshida (comet@aerith.net). All rights reserved.